When you browse on this site, cookies collect data to enhance your experience and personalize the content and advertising you see.
Visit our Privacy Policy to learn more. By continuing to use the site, you agree to this use of cookies and data.
EN

Hourly Weather Kastoria

Today, 10 August, Monday

Time Temperature Precipitation Wind Pressure Humidity
00:00 +20°C° 0 mm 1 mps 702 mmHg 74%
01:00 +20°C° 0 mm 1 mps 702 mmHg 73%
02:00 +20°C° 0 mm 1 mps 702 mmHg 74%
03:00 +20°C° 0 mm 1 mps 702 mmHg 75%
04:00 +20°C° 0 mm 1 mps 702 mmHg 76%
05:00 +21°C° 0 mm 1 mps 702 mmHg 73%
06:00 +22°C° 0 mm 1 mps 702 mmHg 70%
07:00 +24°C° 0 mm 1 mps 703 mmHg 67%
08:00 +25°C° 0.3 mm 1 mps 703 mmHg 63%
09:00 +26°C° 0.3 mm 1 mps 703 mmHg 58%
10:00 +27°C° 0.3 mm 1 mps 703 mmHg 54%
11:00 +28°C° 0.7 mm 1 mps 703 mmHg 52%
12:00 +29°C° 0.7 mm 1 mps 703 mmHg 50%
13:00 +29°C° 0.7 mm 1 mps 703 mmHg 47%
14:00 +29°C° 0.3 mm 1 mps 703 mmHg 48%
15:00 +29°C° 0.3 mm 1 mps 703 mmHg 49%
16:00 +28°C° 0.3 mm 1 mps 703 mmHg 50%
17:00 +27°C° 0.3 mm 1 mps 703 mmHg 55%
18:00 +25°C° 0.3 mm 1 mps 703 mmHg 60%
19:00 +24°C° 0.3 mm 1 mps 703 mmHg 65%
20:00 +23°C° 0.1 mm 1 mps 703 mmHg 67%
21:00 +22°C° 0.1 mm 1 mps 703 mmHg 69%
22:00 +22°C° 0.1 mm 1 mps 703 mmHg 71%
23:00 +22°C° 0 mm 1 mps 703 mmHg 71%

Tomorrow, 11 August, Tuesday

Time Temperature Precipitation Wind Pressure Humidity
00:00 +21°C° 0 mm 1 mps 703 mmHg 72%
01:00 +21°C° 0 mm 1 mps 704 mmHg 72%
02:00 +21°C° 0 mm 1 mps 703 mmHg 73%
03:00 +20°C° 0 mm 1 mps 703 mmHg 73%
04:00 +20°C° 0 mm 1 mps 703 mmHg 74%
05:00 +21°C° 0 mm 1 mps 704 mmHg 70%
06:00 +23°C° 0 mm 1 mps 704 mmHg 67%
07:00 +24°C° 0 mm 1 mps 704 mmHg 64%
08:00 +26°C° 0 mm 1 mps 705 mmHg 58%
09:00 +28°C° 0 mm 1 mps 705 mmHg 52%
10:00 +29°C° 0 mm 1 mps 705 mmHg 46%
11:00 +30°C° 0 mm 1 mps 705 mmHg 43%
12:00 +30°C° 0 mm 1 mps 705 mmHg 40%
13:00 +31°C° 0 mm 1 mps 705 mmHg 37%
14:00 +31°C° 0 mm 1 mps 705 mmHg 37%
15:00 +30°C° 0 mm 1 mps 704 mmHg 38%
16:00 +30°C° 0 mm 1 mps 704 mmHg 39%
17:00 +28°C° 0 mm 1 mps 704 mmHg 44%
18:00 +27°C° 0 mm 1 mps 704 mmHg 49%
19:00 +25°C° 0 mm 1 mps 704 mmHg 54%
20:00 +24°C° 0 mm 1 mps 704 mmHg 57%
21:00 +24°C° 0 mm 1 mps 704 mmHg 60%
22:00 +23°C° 0 mm 1 mps 704 mmHg 62%
23:00 +23°C° 0 mm 1 mps 704 mmHg 64%

Day after tomorrow, 12 August, Wednesday

Time Temperature Precipitation Wind Pressure Humidity
00:00 +22°C° 0 mm 1 mps 703 mmHg 65%
01:00 +22°C° 0 mm 1 mps 703 mmHg 67%
02:00 +21°C° 0 mm 1 mps 703 mmHg 68%
03:00 +21°C° 0 mm 1 mps 703 mmHg 69%
04:00 +21°C° 0 mm 1 mps 703 mmHg 70%
05:00 +22°C° 0 mm 1 mps 703 mmHg 66%
06:00 +24°C° 0 mm 1 mps 703 mmHg 63%
07:00 +25°C° 0 mm 1 mps 704 mmHg 59%
08:00 +27°C° 0 mm 1 mps 704 mmHg 54%
09:00 +28°C° 0 mm 1 mps 704 mmHg 48%
10:00 +30°C° 0 mm 1 mps 705 mmHg 42%
11:00 +31°C° 0 mm 1 mps 704 mmHg 39%
12:00 +31°C° 0 mm 1 mps 704 mmHg 37%
13:00 +32°C° 0 mm 1 mps 704 mmHg 34%
14:00 +32°C° 0 mm 2 mps 704 mmHg 35%
15:00 +31°C° 0 mm 2 mps 704 mmHg 36%
16:00 +31°C° 0 mm 2 mps 704 mmHg 37%
17:00 +30°C° 0 mm 2 mps 704 mmHg 42%
18:00 +28°C° 0 mm 2 mps 704 mmHg 48%
19:00 +26°C° 0 mm 1 mps 703 mmHg 53%
20:00 +25°C° 0.1 mm 1 mps 704 mmHg 57%
21:00 +24°C° 0.1 mm 1 mps 704 mmHg 61%
22:00 +23°C° 0.1 mm 1 mps 704 mmHg 65%
23:00 +23°C° 0 mm 1 mps 704 mmHg 67%

13 August, Thursday

Time Temperature Precipitation Wind Pressure Humidity
00:00 +23°C° 0 mm 1 mps 703 mmHg 69%
01:00 +22°C° 0 mm 1 mps 703 mmHg 72%
02:00 +22°C° 0 mm 1 mps 703 mmHg 73%
03:00 +21°C° 0 mm 1 mps 703 mmHg 75%
04:00 +21°C° 0 mm 1 mps 703 mmHg 76%
05:00 +22°C° 0 mm 1 mps 703 mmHg 72%
06:00 +24°C° 0 mm 1 mps 704 mmHg 68%
07:00 +25°C° 0 mm 1 mps 704 mmHg 64%
08:00 +26°C° 0.1 mm 1 mps 704 mmHg 58%
09:00 +28°C° 0.1 mm 1 mps 704 mmHg 52%
10:00 +29°C° 0.1 mm 2 mps 705 mmHg 46%
11:00 +30°C° 0.1 mm 2 mps 705 mmHg 44%
12:00 +30°C° 0.1 mm 2 mps 704 mmHg 42%
13:00 +31°C° 0.1 mm 2 mps 704 mmHg 40%
14:00 +31°C° 0 mm 1 mps 704 mmHg 41%
15:00 +31°C° 0 mm 1 mps 704 mmHg 42%
16:00 +30°C° 0 mm 1 mps 704 mmHg 43%
17:00 +29°C° 0 mm 1 mps 704 mmHg 48%
18:00 +27°C° 0 mm 1 mps 704 mmHg 54%
19:00 +25°C° 0 mm 1 mps 704 mmHg 59%
20:00 +23°C° 0 mm 0 mps 704 mmHg 61%
21:00 +22°C° 0 mm 0 mps 704 mmHg 63%
22:00 +21°C° 0 mm 0 mps 704 mmHg 66%
23:00 +21°C° 0 mm 0 mps 704 mmHg 67%

14 August, Friday

Time Temperature Precipitation Wind Pressure Humidity
00:00 +20°C° 0 mm 0 mps 704 mmHg 69%
01:00 +20°C° 0 mm 0 mps 704 mmHg 71%
02:00 +20°C° 0 mm 0 mps 703 mmHg 72%
03:00 +19°C° 0 mm 0 mps 703 mmHg 73%
04:00 +19°C° 0 mm 0 mps 703 mmHg 75%
05:00 +20°C° 0 mm 0 mps 703 mmHg 71%
06:00 +22°C° 0 mm 0 mps 704 mmHg 67%
07:00 +23°C° 0 mm 0 mps 704 mmHg 63%
08:00 +27°C° 0 mm 1 mps 704 mmHg 58%
09:00 +28°C° 0 mm 1 mps 705 mmHg 53%
10:00 +30°C° 0 mm 1 mps 705 mmHg 49%
11:00 +31°C° 0 mm 1 mps 705 mmHg 45%
12:00 +31°C° 0 mm 1 mps 704 mmHg 42%
13:00 +32°C° 0 mm 1 mps 704 mmHg 39%
14:00 +32°C° 0 mm 1 mps 704 mmHg 38%
15:00 +32°C° 0 mm 1 mps 703 mmHg 38%
16:00 +32°C° 0 mm 1 mps 703 mmHg 38%
17:00 +30°C° 0 mm 1 mps 703 mmHg 45%
18:00 +28°C° 0 mm 1 mps 703 mmHg 53%
19:00 +26°C° 0 mm 1 mps 703 mmHg 61%
20:00 +25°C° 0 mm 1 mps 703 mmHg 63%
21:00 +24°C° 0 mm 1 mps 703 mmHg 66%
22:00 +24°C° 0 mm 1 mps 703 mmHg 69%
23:00 +23°C° 0 mm 1 mps 703 mmHg 70%

15 August, Saturday

Time Temperature Precipitation Wind Pressure Humidity
00:00 +22°C° 0 mm 1 mps 702 mmHg 71%
01:00 +22°C° 0 mm 1 mps 702 mmHg 72%
02:00 +20°C° 0 mm 0 mps 702 mmHg 73%
03:00 +19°C° 0 mm 0 mps 702 mmHg 74%
04:00 +19°C° 0 mm 0 mps 702 mmHg 75%
05:00 +20°C° 0 mm 0 mps 702 mmHg 71%
06:00 +24°C° 0 mm 1 mps 702 mmHg 67%
07:00 +25°C° 0 mm 1 mps 702 mmHg 63%
08:00 +27°C° 0 mm 1 mps 702 mmHg 58%
09:00 +28°C° 0 mm 2 mps 703 mmHg 53%
10:00 +30°C° 0 mm 2 mps 703 mmHg 48%
11:00 +31°C° 0 mm 2 mps 703 mmHg 45%
12:00 +31°C° 0 mm 2 mps 702 mmHg 42%
13:00 +32°C° 0 mm 2 mps 702 mmHg 38%
14:00 +32°C° 0 mm 2 mps 702 mmHg 40%
15:00 +31°C° 0 mm 2 mps 701 mmHg 43%
16:00 +30°C° 0 mm 2 mps 701 mmHg 45%
17:00 +29°C° 0.2 mm 2 mps 701 mmHg 51%
18:00 +27°C° 0.2 mm 2 mps 701 mmHg 58%
19:00 +25°C° 0.2 mm 1 mps 701 mmHg 65%
20:00 +24°C° 0.4 mm 1 mps 701 mmHg 69%
21:00 +23°C° 0.4 mm 1 mps 701 mmHg 74%
22:00 +22°C° 0.4 mm 1 mps 701 mmHg 79%
23:00 +21°C° 0 mm 1 mps 701 mmHg 81%
Show more